sat.trackr.live / text

‹ back to catalog

CONNECTA IOT-9

NORAD 64534 · 2025-135G

PAYLOAD ACTIVE UNKNOWN

§ Identity

Operator
Country
TURK
Launch date
2025-06-23
Launch site
AFWTR
Launch vehicle
Mass (kg)
RCS (m²)

External: N2YO · Heavens-Above · Gunter

§ Orbital elements

Epoch: 2026-05-24T21:09:49.260096Z

Period
94.74 min
Inclination
97.4732°
Eccentricity
0.0003870
Mean motion
15.19948323 rev/d
Perigee alt
503.3 km
Apogee alt
508.7 km
Semi-major
6,884.1 km
B*
1.3062e-4
RAAN
259.9782°
Arg perigee
243.4717°
Mean anomaly
116.6122°
Rev number
5,128

§ Raw data

CONNECTA IOT-91 64534U 25135G   26144.88182014  .00002740  00000+0  13062-3 0  99942 64534  97.4732 259.9782 0003870 243.4717 116.6122 15.19948323 51284

JSON: /api/v1/satellites/64534 · /tle

For live sub-satellite position, see the globe view (requires WebGL).

§ Visibility from observer

Set your observer location to see the next 7 days of passes ≥ 10°. The values pass through the URL so the page stays shareable.

No JS? Fill the form by hand. The geolocation button needs JavaScript.

§ Radio — SatNOGS DB

ModeDescriptionDownlinkUplink
FM Mode S telemetry 2.240 GHz
GMSK Mode U - GMSK 4k8 AX.25 TLM 401.510 MHz

2 transmitters · refreshed weekly from db.satnogs.org